HySIS

operational
NORAD ID: 43719 Int'l Des: 2018-096 Owner: ISRO Country: IN
LEOCIRCULARRETROGRADESSO

About HySIS

Description loading...

Live Position

Loading 3D Globe...

Upcoming Passes

Altitude History

Altitude vs Time

uPlot chart will show altitude changes over time

Two-Line Element Set

1 43719U 18096A 25347.65885681 .00002621 00000-0 36474-3 0 9994
2 43719 98.0094 50.6317 0001311 56.0307 304.1028 14.78651372380008
Epoch: Dec 13, 2025 • Age: 16 hours

Current Status

Altitude 635.2 km
Velocity 7.54 km/s
Sub-Earth Point 14.59°N, 155.82°W
Launch Date Nov 29, 2018
Age 7 years
Type other

Technical Details

Classification Payload
Mass 380.00 kg
Dry Mass 350.00 kg
Total Mass 380.00 kg
Length 2.20 m
Diameter 1.10 m
Span 6.00 m
Shape Box + 2 pan
Manufacturer ISRO
Bus Type SSB-2
Phase Status In Orbit
Owner/State ISRO/IN

Large Constellations

Loading constellations...